When you browse on this site, cookies collect data to enhance your experience and personalize the content and advertising you see.
Visit our Privacy Policy to learn more. By continuing to use the site, you agree to this use of cookies and data.

Stündliche Wetter Barisal

Heute, 4 Juli, Samstag

Zeit Temperatur Niederschläge Wind Luftdruck Luftfeuchtigkeit
00:00 +31°C° 0 mm 1 m/S 750 mmHg 85%
01:00 +31°C° 0.2 mm 1 m/S 750 mmHg 86%
02:00 +30°C° 0.2 mm 1 m/S 749 mmHg 86%
03:00 +30°C° 0.2 mm 1 m/S 749 mmHg 86%
04:00 +30°C° 0.7 mm 1 m/S 749 mmHg 85%
05:00 +30°C° 0.7 mm 2 m/S 749 mmHg 85%
06:00 +30°C° 0 mm 1 m/S 750 mmHg 87%
07:00 +31°C° 0.7 mm 2 m/S 750 mmHg 81%
08:00 +34°C° 0.7 mm 3 m/S 750 mmHg 74%
09:00 +35°C° 0.7 mm 3 m/S 750 mmHg 68%
10:00 +35°C° 1.5 mm 4 m/S 750 mmHg 66%
11:00 +36°C° 1.5 mm 5 m/S 750 mmHg 64%
12:00 +36°C° 1.5 mm 6 m/S 749 mmHg 63%
13:00 +36°C° 0.7 mm 6 m/S 749 mmHg 64%
14:00 +36°C° 0.7 mm 6 m/S 748 mmHg 65%
15:00 +35°C° 0.7 mm 7 m/S 748 mmHg 67%
16:00 +34°C° 0 mm 6 m/S 748 mmHg 70%
17:00 +34°C° 0 mm 6 m/S 748 mmHg 73%
18:00 +33°C° 0 mm 6 m/S 748 mmHg 76%
19:00 +32°C° 0 mm 5 m/S 749 mmHg 79%
20:00 +32°C° 0 mm 5 m/S 749 mmHg 81%
21:00 +32°C° 0 mm 4 m/S 749 mmHg 83%
22:00 +30°C° 0.1 mm 4 m/S 749 mmHg 84%
23:00 +30°C° 0.1 mm 4 m/S 749 mmHg 84%

Morgen, 5 Juli, Sonntag

Zeit Temperatur Niederschläge Wind Luftdruck Luftfeuchtigkeit
00:00 +30°C° 0.1 mm 3 m/S 749 mmHg 85%
01:00 +30°C° 0.8 mm 3 m/S 749 mmHg 86%
02:00 +30°C° 0.8 mm 4 m/S 748 mmHg 87%
03:00 +30°C° 0.8 mm 4 m/S 748 mmHg 88%
04:00 +29°C° 2.5 mm 4 m/S 748 mmHg 87%
05:00 +29°C° 2.5 mm 5 m/S 748 mmHg 87%
06:00 +29°C° 2.5 mm 5 m/S 748 mmHg 87%
07:00 +29°C° 1.6 mm 5 m/S 748 mmHg 87%
08:00 +29°C° 1.6 mm 4 m/S 749 mmHg 88%
09:00 +29°C° 1.6 mm 4 m/S 749 mmHg 88%
10:00 +30°C° 1.3 mm 4 m/S 749 mmHg 87%
11:00 +30°C° 1.3 mm 4 m/S 749 mmHg 85%
12:00 +32°C° 1.3 mm 4 m/S 749 mmHg 83%
13:00 +32°C° 1.1 mm 5 m/S 748 mmHg 81%
14:00 +32°C° 1.1 mm 5 m/S 748 mmHg 80%
15:00 +32°C° 1.1 mm 5 m/S 747 mmHg 78%
16:00 +32°C° 0.5 mm 5 m/S 747 mmHg 79%
17:00 +32°C° 0.5 mm 5 m/S 747 mmHg 81%
18:00 +30°C° 0.5 mm 5 m/S 747 mmHg 82%
19:00 +30°C° 0.7 mm 5 m/S 747 mmHg 84%
20:00 +30°C° 0.7 mm 5 m/S 748 mmHg 85%
21:00 +30°C° 0.7 mm 5 m/S 748 mmHg 86%
22:00 +30°C° 0.8 mm 5 m/S 748 mmHg 87%
23:00 +30°C° 0.8 mm 5 m/S 748 mmHg 87%

übermorgen, 6 Juli, Montag

Zeit Temperatur Niederschläge Wind Luftdruck Luftfeuchtigkeit
00:00 +29°C° 0.8 mm 5 m/S 748 mmHg 87%
01:00 +29°C° 0.9 mm 4 m/S 748 mmHg 87%
02:00 +29°C° 0.9 mm 4 m/S 747 mmHg 88%
03:00 +29°C° 0.9 mm 4 m/S 747 mmHg 89%
04:00 +29°C° 0.2 mm 3 m/S 747 mmHg 89%
05:00 +29°C° 0.2 mm 3 m/S 747 mmHg 89%
06:00 +29°C° 0.2 mm 3 m/S 747 mmHg 89%
07:00 +30°C° 0.4 mm 4 m/S 747 mmHg 84%
08:00 +33°C° 0.4 mm 4 m/S 748 mmHg 79%
09:00 +34°C° 0.4 mm 5 m/S 748 mmHg 74%
10:00 +34°C° 1.2 mm 5 m/S 748 mmHg 73%
11:00 +35°C° 1.2 mm 6 m/S 748 mmHg 72%
12:00 +35°C° 1.2 mm 6 m/S 748 mmHg 71%
13:00 +35°C° 1.1 mm 6 m/S 747 mmHg 71%
14:00 +35°C° 1.1 mm 6 m/S 747 mmHg 71%
15:00 +35°C° 1.1 mm 7 m/S 746 mmHg 71%
16:00 +34°C° 0.3 mm 6 m/S 747 mmHg 73%
17:00 +34°C° 0.3 mm 6 m/S 747 mmHg 75%
18:00 +33°C° 0.3 mm 5 m/S 747 mmHg 77%
19:00 +33°C° 0.1 mm 5 m/S 747 mmHg 80%
20:00 +32°C° 0.1 mm 4 m/S 748 mmHg 82%
21:00 +32°C° 0.1 mm 4 m/S 749 mmHg 85%
22:00 +30°C° 0.4 mm 4 m/S 749 mmHg 85%
23:00 +30°C° 0.4 mm 4 m/S 749 mmHg 86%

7 Juli, Dienstag

Zeit Temperatur Niederschläge Wind Luftdruck Luftfeuchtigkeit
00:00 +30°C° 0.4 mm 4 m/S 749 mmHg 86%
01:00 +30°C° 0.8 mm 4 m/S 749 mmHg 86%
02:00 +30°C° 0.8 mm 4 m/S 749 mmHg 86%
03:00 +30°C° 0.8 mm 4 m/S 749 mmHg 87%
04:00 +30°C° 0.8 mm 4 m/S 749 mmHg 87%
05:00 +30°C° 0.8 mm 4 m/S 749 mmHg 87%
06:00 +30°C° 0.8 mm 4 m/S 749 mmHg 87%
07:00 +32°C° 0.5 mm 4 m/S 750 mmHg 82%
08:00 +33°C° 0.5 mm 5 m/S 750 mmHg 77%
09:00 +34°C° 0.5 mm 5 m/S 750 mmHg 73%
10:00 +35°C° 0.4 mm 6 m/S 750 mmHg 71%
11:00 +35°C° 0.4 mm 6 m/S 750 mmHg 68%
12:00 +36°C° 0.4 mm 7 m/S 750 mmHg 66%
13:00 +36°C° 0.5 mm 7 m/S 750 mmHg 66%
14:00 +36°C° 0.5 mm 7 m/S 749 mmHg 67%
15:00 +36°C° 0.5 mm 7 m/S 749 mmHg 67%
16:00 +35°C° 0.1 mm 7 m/S 749 mmHg 69%
17:00 +34°C° 0.1 mm 6 m/S 749 mmHg 72%
18:00 +33°C° 0.1 mm 6 m/S 749 mmHg 75%
19:00 +33°C° 0 mm 6 m/S 750 mmHg 78%
20:00 +32°C° 0 mm 5 m/S 750 mmHg 80%
21:00 +32°C° 0 mm 5 m/S 751 mmHg 83%
22:00 +32°C° 0.1 mm 5 m/S 751 mmHg 83%
23:00 +32°C° 0.1 mm 5 m/S 751 mmHg 84%

8 Juli, Mittwoch

Zeit Temperatur Niederschläge Wind Luftdruck Luftfeuchtigkeit
00:00 +32°C° 0.1 mm 4 m/S 751 mmHg 84%
01:00 +30°C° 0.2 mm 4 m/S 751 mmHg 85%
02:00 +30°C° 0.2 mm 4 m/S 751 mmHg 85%
03:00 +30°C° 0.2 mm 4 m/S 750 mmHg 86%
04:00 +30°C° 0.5 mm 4 m/S 750 mmHg 86%
05:00 +30°C° 0.5 mm 4 m/S 751 mmHg 86%
06:00 +30°C° 0.5 mm 4 m/S 751 mmHg 86%
07:00 +32°C° 0.7 mm 4 m/S 751 mmHg 82%
08:00 +33°C° 0.7 mm 5 m/S 751 mmHg 78%
09:00 +34°C° 0.7 mm 6 m/S 752 mmHg 74%
10:00 +34°C° 1.4 mm 6 m/S 751 mmHg 73%
11:00 +34°C° 1.4 mm 7 m/S 751 mmHg 72%
12:00 +34°C° 1.4 mm 7 m/S 751 mmHg 71%
13:00 +34°C° 0.5 mm 7 m/S 751 mmHg 73%
14:00 +33°C° 0.5 mm 7 m/S 750 mmHg 75%
15:00 +33°C° 0.5 mm 7 m/S 750 mmHg 77%
16:00 +33°C° 0.1 mm 6 m/S 750 mmHg 78%
17:00 +32°C° 0.1 mm 6 m/S 750 mmHg 80%
18:00 +32°C° 0.1 mm 6 m/S 750 mmHg 81%
19:00 +32°C° 0.3 mm 6 m/S 750 mmHg 82%
20:00 +32°C° 0.3 mm 5 m/S 750 mmHg 83%
21:00 +32°C° 0.3 mm 5 m/S 751 mmHg 85%
22:00 +32°C° 1.6 mm 5 m/S 751 mmHg 85%
23:00 +30°C° 1.6 mm 6 m/S 751 mmHg 86%

9 Juli, Donnerstag

Zeit Temperatur Niederschläge Wind Luftdruck Luftfeuchtigkeit
00:00 +30°C° 1.6 mm 6 m/S 750 mmHg 86%
01:00 +30°C° 2.6 mm 6 m/S 750 mmHg 86%
02:00 +30°C° 2.6 mm 5 m/S 750 mmHg 87%
03:00 +30°C° 2.6 mm 5 m/S 749 mmHg 88%
04:00 +30°C° 1.4 mm 5 m/S 749 mmHg 87%
05:00 +30°C° 1.4 mm 5 m/S 750 mmHg 85%
06:00 +30°C° 1.4 mm 5 m/S 750 mmHg 84%
07:00 +30°C° 1.2 mm 5 m/S 750 mmHg 84%
08:00 +30°C° 1.2 mm 5 m/S 750 mmHg 83%
09:00 +30°C° 1.2 mm 5 m/S 751 mmHg 82%
10:00 +30°C° 0.9 mm 5 m/S 751 mmHg 82%
11:00 +30°C° 0.9 mm 5 m/S 751 mmHg 81%
12:00 +30°C° 0.9 mm 6 m/S 751 mmHg 81%
13:00 +30°C° 0.9 mm 6 m/S 750 mmHg 80%
14:00 +32°C° 0.9 mm 5 m/S 750 mmHg 80%
15:00 +32°C° 0.9 mm 5 m/S 749 mmHg 80%
16:00 +32°C° 1.7 mm 5 m/S 749 mmHg 81%
17:00 +30°C° 1.7 mm 5 m/S 749 mmHg 82%
18:00 +30°C° 1.7 mm 5 m/S 749 mmHg 84%
19:00 +30°C° 0.1 mm 5 m/S 749 mmHg 85%
20:00 +30°C° 0.1 mm 4 m/S 749 mmHg 85%
21:00 +30°C° 0.1 mm 4 m/S 750 mmHg 86%
22:00 +30°C° 0.2 mm 4 m/S 750 mmHg 86%
23:00 +30°C° 0.2 mm 4 m/S 750 mmHg 86%
Mehr zeigen